Regional Weather Roundup
Issued by NWS

Home | Current Version | Previous Version | Graphics & Text | Print | Product List | Glossary On
Versions: 1 2 3 4 5 6 7 8 9 10 11 12 13 14 15 16 17 18 19 20 21 22 23 24 25 26 27 28 29 30 31 32 33 34 35 36 37 38 39 40 41 42 43 44 45 46 47 48 49 50
000
ASUS45 KSLC 300110
RWRUT

UTAH REGIONAL WEATHER ROUNDUP
NATIONAL WEATHER SERVICE SALT LAKE CITY UT
700 PM MDT TUE JUL 29 2014

UTZ001>011-023>025-300200-

NORTHERN UTAH

CITY           SKY/WX    TMP DP  RH WIND       PRES   REMARKS
HILL AFB       PTSUNNY   67  64  88 SE5       30.16F
LOGAN          SUNNY     73  60  63 SW6       30.14F
OGDEN          PTSUNNY   71  60  68 S10       30.14F
PROVO AIRPORT  NOT AVBL
SALT LAKE CITY PTSUNNY   76  58  53 NW5       30.12F
VERNAL         CLOUDY    66  59  78 NE6       30.19F
WENDOVER       CLOUDY    73  52  46 W7        30.14F
HEBER CITY     PTSUNNY   68  52  56 SE9       30.20F
WEST JORDAN    CLOUDY    73  63  68 CALM      30.16F

$$

UTZ012>022-026-027-300200-

SOUTHERN UTAH

CITY           SKY/WX    TMP DP  RH WIND       PRES   REMARKS
BRYCE CANYON   PTSUNNY   61  57  87 N12       30.36F
CEDAR CITY     CLOUDY    67  59  75 NE5       30.21F
MILFORD        PTSUNNY   77  57  50 SW9       30.16F
MOAB/CYNLANDS  LGT RAIN  67  62  84 N5        30.15S
PRICE          CLOUDY    69  55  60 SE3       30.22F
ST GEORGE      MOCLDY    97  54  23 W16G22    29.97S HX  94
KANAB            N/A     84  48  28 SW13      30.15S

$$

REGIONAL REPORTS     COLORADO/ARIZONA

CITY           SKY/WX    TMP DP  RH WIND       PRES   REMARKS
CRAIG, CO      TSTM      58  58 100 MISG      30.27R FOG
GRAND JUNCTION CLOUDY    74  52  46 W15G24    30.15R
RIFLE          CLOUDY    69  56  62 NW5       30.19F
MONTROSE       CLOUDY    71  60  68 N3        30.23F THUNDER
CORTEZ         MOSUNNY   76  52  43 NE10      30.22F
PAGE, AZ       MOSUNNY   92  48  22 W7        30.03F
GRAND CANYON   PTSUNNY   80  48  32 W12G20    30.26F
KINGMAN        MOSUNNY   95  48  20 SW16G22   30.02F HX  91
FLAGSTAFF      MOSUNNY   76  48  37 SW14      30.31S

$$

REGIONAL REPORTS    NEVADA/IDAHO/WYOMING

CITY           SKY/WX    TMP DP  RH WIND       PRES   REMARKS
LAS VEGAS, NV  MOSUNNY   98  49  18 SW14G20   29.88F HX  95
ELY            PTSUNNY   81  41  24 N7        30.22F
ELKO           CLOUDY    76  48  37 N22G31    30.20R
POCATELLO, ID  SUNNY     77  56  48 E7        30.14F
BURLEY         PTSUNNY   81  50  33 E7        30.09F
EVANSTON, WY   LGT RAIN  62  55  77 NE6       30.31S
ROCK SPRINGS   CLOUDY    58  54  86 NE17      30.34F

$$



USA.gov is the U.S. government's official web portal to all federal, state and local government web resources and services.